GLG8394 SEGU-SKBO

Flight info

Callsign GLG8394
Flight time N/A
Altitude 36000
Route REGAP2 PAMIS UP533 BOKAN DCT ESARO DCT GIR GIR5E
Aircraft A320/M-SDE3FGHIRWY/LB1

Departure

Time 2026-04-23 03:31
Airport José Joaquín de Olmedo International Airport (SEGU)

Arrival

Time N/A
Airport El Dorado International Airport (SKBO)
Time Latitude Longitude Altitude Speed Heading
2026-04-23 02:13 -2.14785 -79.88273 29 ft 0 kts 300°
2026-04-23 02:57 -2.14791 -79.88262 29 ft 4 kts 302°
2026-04-23 02:57 -2.14807 -79.88240 29 ft 4 kts 313°
2026-04-23 02:58 -2.14820 -79.88229 29 ft 4 kts 338°
2026-04-23 02:58 -2.14836 -79.88227 29 ft 0 kts 30°
2026-04-23 03:18 -2.14835 -79.88226 29 ft 1 kts 30°
2026-04-23 03:18 -2.14824 -79.88220 21 ft 3 kts 30°
2026-04-23 03:19 -2.14805 -79.88207 30 ft 4 kts 35°
2026-04-23 03:19 -2.14787 -79.88184 29 ft 4 kts 72°
2026-04-23 03:19 -2.14791 -79.88156 29 ft 4 kts 108°
2026-04-23 03:19 -2.14801 -79.88136 29 ft 3 kts 117°
2026-04-23 03:20 -2.14810 -79.88120 29 ft 2 kts 117°
2026-04-23 03:20 -2.14816 -79.88108 29 ft 2 kts 120°
2026-04-23 03:20 -2.14821 -79.88100 29 ft 1 kts 120°
2026-04-23 03:20 -2.14824 -79.88096 29 ft 0 kts 120°
2026-04-23 03:21 -2.14825 -79.88094 29 ft 0 kts 120°
2026-04-23 03:21 -2.14829 -79.88087 29 ft 1 kts 119°
2026-04-23 03:21 -2.14833 -79.88079 29 ft 1 kts 115°
2026-04-23 03:21 -2.14837 -79.88064 29 ft 3 kts 101°
2026-04-23 03:22 -2.14834 -79.88042 29 ft 3 kts 72°
2026-04-23 03:22 -2.14817 -79.88022 29 ft 4 kts 40°
2026-04-23 03:22 -2.14788 -79.88003 29 ft 5 kts 32°
2026-04-23 03:22 -2.14757 -79.87985 29 ft 5 kts 28°
2026-04-23 03:23 -2.14728 -79.87969 29 ft 4 kts 28°
2026-04-23 03:23 -2.14703 -79.87955 29 ft 4 kts 32°
2026-04-23 03:23 -2.14683 -79.87940 29 ft 3 kts 39°
2026-04-23 03:23 -2.14671 -79.87925 28 ft 2 kts 58°
2026-04-23 03:24 -2.14664 -79.87912 28 ft 2 kts 64°
2026-04-23 03:24 -2.14660 -79.87902 28 ft 1 kts 70°
2026-04-23 03:24 -2.14659 -79.87897 28 ft 0 kts 71°
2026-04-23 03:24 -2.14658 -79.87896 28 ft 0 kts 71°
2026-04-23 03:26 -2.14658 -79.87894 28 ft 1 kts 71°
2026-04-23 03:26 -2.14652 -79.87878 28 ft 3 kts 71°
2026-04-23 03:27 -2.14644 -79.87853 28 ft 4 kts 72°
2026-04-23 03:27 -2.14637 -79.87824 28 ft 4 kts 82°
2026-04-23 03:27 -2.14637 -79.87797 28 ft 3 kts 94°
2026-04-23 03:27 -2.14643 -79.87777 28 ft 3 kts 118°
2026-04-23 03:28 -2.14654 -79.87766 28 ft 2 kts 142°
2026-04-23 03:28 -2.14667 -79.87762 28 ft 2 kts 179°
2026-04-23 03:28 -2.14695 -79.87767 28 ft 6 kts 194°
2026-04-23 03:28 -2.14726 -79.87781 27 ft 0 kts 208°
2026-04-23 03:30 -2.14727 -79.87781 27 ft 1 kts 208°
2026-04-23 03:30 -2.14745 -79.87794 27 ft 6 kts 215°
2026-04-23 03:30 -2.14946 -79.87921 29 ft 72 kts 210°
2026-04-23 03:30 -2.15580 -79.88280 27 ft 134 kts 210°
2026-04-23 03:31 -2.16491 -79.88788 357 ft 153 kts 208°
2026-04-23 03:31 -2.17429 -79.89272 949 ft 151 kts 207°
2026-04-23 03:31 -2.18354 -79.89778 1533 ft 152 kts 210°
2026-04-23 03:31 -2.19351 -79.90142 1985 ft 165 kts 179°
2026-04-23 03:32 -2.20488 -79.89733 2267 ft 189 kts 139°
2026-04-23 03:32 -2.21145 -79.88535 2514 ft 213 kts 96°
2026-04-23 03:32 -2.20777 -79.87043 2786 ft 238 kts 58°
2026-04-23 03:32 -2.19667 -79.85713 3160 ft 262 kts 45°
2026-04-23 03:33 -2.18287 -79.84464 3893 ft 270 kts 41°
2026-04-23 03:33 -2.16833 -79.83246 4757 ft 274 kts 40°
2026-04-23 03:33 -2.15356 -79.82011 5592 ft 278 kts 41°
2026-04-23 03:33 -2.13878 -79.80745 6419 ft 282 kts 41°
2026-04-23 03:34 -2.12393 -79.79442 7185 ft 286 kts 42°
2026-04-23 03:34 -2.10904 -79.78110 7971 ft 289 kts 42°
2026-04-23 03:34 -2.09400 -79.76748 8759 ft 293 kts 43°
2026-04-23 03:34 -2.07886 -79.75370 9520 ft 297 kts 43°
2026-04-23 03:35 -2.06351 -79.73965 10210 ft 303 kts 43°
2026-04-23 03:35 -2.04734 -79.72533 10422 ft 326 kts 37°
2026-04-23 03:35 -2.02757 -79.71268 10589 ft 349 kts 29°
2026-04-23 03:35 -2.00611 -79.70049 11034 ft 359 kts 29°
2026-04-23 03:36 -1.98419 -79.68809 11644 ft 364 kts 29°
2026-04-23 03:36 -1.96197 -79.67558 12272 ft 368 kts 28°
2026-04-23 03:36 -1.93958 -79.66299 12923 ft 372 kts 28°
2026-04-23 03:36 -1.91680 -79.65013 13557 ft 376 kts 28°
2026-04-23 03:37 -1.89393 -79.63714 14129 ft 380 kts 28°
2026-04-23 03:37 -1.87082 -79.62396 14675 ft 383 kts 28°
2026-04-23 03:37 -1.84755 -79.61068 15219 ft 387 kts 28°
2026-04-23 03:37 -1.82443 -79.59750 15766 ft 390 kts 28°
2026-04-23 03:38 -1.80073 -79.58401 16308 ft 393 kts 28°
2026-04-23 03:38 -1.77689 -79.57045 16846 ft 396 kts 28°
2026-04-23 03:38 -1.75281 -79.55678 17376 ft 399 kts 28°
2026-04-23 03:38 -1.72856 -79.54303 17913 ft 403 kts 28°
2026-04-23 03:39 -1.70405 -79.52914 18417 ft 406 kts 28°
2026-04-23 03:39 -1.67932 -79.51513 18880 ft 409 kts 28°
2026-04-23 03:39 -1.65451 -79.50104 19360 ft 412 kts 28°
2026-04-23 03:39 -1.62949 -79.48682 19856 ft 414 kts 29°
2026-04-23 03:40 -1.60441 -79.47257 20352 ft 416 kts 29°
2026-04-23 03:40 -1.57926 -79.45826 20830 ft 418 kts 30°
2026-04-23 03:40 -1.55388 -79.44363 21299 ft 420 kts 30°
2026-04-23 03:40 -1.52850 -79.42889 21757 ft 423 kts 30°
2026-04-23 03:41 -1.50836 -79.41716 22123 ft 425 kts 30°
2026-04-23 03:41 -1.50148 -79.41314 22228 ft 425 kts 31°
2026-04-23 03:41 -1.47599 -79.39841 22358 ft 419 kts 30°
2026-04-23 03:42 -1.45115 -79.38411 22512 ft 422 kts 30°
2026-04-23 03:42 -1.42554 -79.36921 22844 ft 427 kts 31°
2026-04-23 03:42 -1.39980 -79.35414 23249 ft 430 kts 31°
2026-04-23 03:42 -1.37384 -79.33895 23670 ft 433 kts 31°
2026-04-23 03:43 -1.34777 -79.32374 24015 ft 435 kts 31°
2026-04-23 03:43 -1.32154 -79.30848 24356 ft 437 kts 31°
2026-04-23 03:43 -1.29531 -79.29322 24704 ft 438 kts 31°
2026-04-23 03:43 -1.26883 -79.27784 25019 ft 440 kts 31°
2026-04-23 03:44 -1.24225 -79.26242 25342 ft 442 kts 31°
2026-04-23 03:44 -1.21558 -79.24696 25658 ft 444 kts 31°
2026-04-23 03:44 -1.18910 -79.23161 25972 ft 445 kts 31°
2026-04-23 03:44 -1.16219 -79.21601 26299 ft 447 kts 31°
2026-04-23 03:45 -1.13532 -79.20041 26602 ft 448 kts 31°
2026-04-23 03:45 -1.10823 -79.18466 26903 ft 450 kts 31°
2026-04-23 03:45 -1.09025 -79.17419 27104 ft 451 kts 32°
2026-04-23 03:45 -1.05384 -79.15303 27503 ft 453 kts 32°
2026-04-23 03:46 -1.03577 -79.14254 27707 ft 454 kts 31°
2026-04-23 03:46 -1.00831 -79.12664 27995 ft 456 kts 32°
2026-04-23 03:46 -0.98074 -79.11068 28278 ft 457 kts 32°
2026-04-23 03:46 -0.95314 -79.09465 28546 ft 459 kts 32°
2026-04-23 03:47 -0.92552 -79.07860 28797 ft 461 kts 32°
2026-04-23 03:47 -0.89778 -79.06250 29062 ft 462 kts 32°
2026-04-23 03:47 -0.86993 -79.04634 29306 ft 463 kts 32°
2026-04-23 03:47 -0.84238 -79.03036 29536 ft 465 kts 32°
2026-04-23 03:48 -0.81437 -79.01410 29773 ft 466 kts 32°
2026-04-23 03:48 -0.78646 -78.99755 30004 ft 467 kts 33°
2026-04-23 03:48 -0.75891 -78.98022 30300 ft 466 kts 34°
2026-04-23 03:48 -0.73188 -78.96248 30570 ft 465 kts 36°
2026-04-23 03:49 -0.70501 -78.94451 30840 ft 463 kts 36°
2026-04-23 03:49 -0.67823 -78.92659 31109 ft 462 kts 36°
2026-04-23 03:49 -0.65143 -78.90884 31395 ft 461 kts 36°
2026-04-23 03:49 -0.62492 -78.89151 31690 ft 459 kts 35°
2026-04-23 03:50 -0.59817 -78.87417 31979 ft 458 kts 35°
2026-04-23 03:50 -0.57142 -78.85691 32273 ft 457 kts 35°
2026-04-23 03:50 -0.54471 -78.83972 32593 ft 455 kts 35°
2026-04-23 03:50 -0.51805 -78.82252 32885 ft 454 kts 35°
2026-04-23 03:51 -0.49160 -78.80539 33182 ft 453 kts 36°
2026-04-23 03:51 -0.46514 -78.78833 33473 ft 452 kts 35°
2026-04-23 03:51 -0.43857 -78.77143 33772 ft 451 kts 35°
2026-04-23 03:51 -0.41244 -78.75479 34071 ft 449 kts 36°
2026-04-23 03:52 -0.38621 -78.73786 34370 ft 448 kts 36°
2026-04-23 03:52 -0.36014 -78.72084 34610 ft 447 kts 36°
2026-04-23 03:52 -0.33410 -78.70375 34852 ft 446 kts 36°
2026-04-23 03:52 -0.30827 -78.68680 34516 ft 441 kts 36°
2026-04-23 03:53 -0.28259 -78.66999 33124 ft 443 kts 36°
2026-04-23 03:53 -0.25685 -78.65320 32118 ft 438 kts 36°
2026-04-23 03:53 -0.23194 -78.63705 32006 ft 413 kts 36°
2026-04-23 03:53 -0.20864 -78.62200 31762 ft 394 kts 35°
2026-04-23 03:54 -0.18602 -78.60736 31228 ft 384 kts 35°
2026-04-23 03:54 -0.16380 -78.59292 30634 ft 377 kts 35°
2026-04-23 03:54 -0.14193 -78.57868 29950 ft 372 kts 35°
2026-04-23 03:54 -0.12048 -78.56460 29250 ft 366 kts 38°
2026-04-23 03:55 -0.10310 -78.54689 28603 ft 353 kts 63°
2026-04-23 03:55 -0.09565 -78.52414 27936 ft 342 kts 89°
2026-04-23 03:55 -0.09942 -78.50113 27250 ft 336 kts 114°
2026-04-23 03:55 -0.10872 -78.47979 26515 ft 334 kts 106°
2026-04-23 03:56 -0.11150 -78.45696 25866 ft 331 kts 92°
2026-04-23 03:56 -0.11492 -78.43448 25242 ft 325 kts 115°
2026-04-23 03:56 -0.12772 -78.41676 24666 ft 318 kts 143°
2026-04-23 03:56 -0.14741 -78.40768 24081 ft 313 kts 173°
2026-04-23 03:57 -0.16870 -78.40971 23413 ft 308 kts 204°
2026-04-23 03:57 -0.18567 -78.42210 22752 ft 304 kts 234°
2026-04-23 03:57 -0.19606 -78.44044 22090 ft 303 kts 247°
2026-04-23 03:57 -0.20306 -78.46026 21505 ft 301 kts 256°
2026-04-23 03:58 -0.20592 -78.48073 20980 ft 297 kts 271°
2026-04-23 03:58 -0.20227 -78.50095 20475 ft 293 kts 292°
2026-04-23 03:58 -0.19175 -78.51811 19973 ft 291 kts 313°
2026-04-23 03:58 -0.17587 -78.53042 19459 ft 290 kts 332°
2026-04-23 03:59 -0.15674 -78.53661 18953 ft 290 kts 352°
2026-04-23 03:59 -0.13668 -78.53599 18517 ft 290 kts 12°
2026-04-23 03:59 -0.11805 -78.52880 18394 ft 293 kts 31°
2026-04-23 03:59 -0.10249 -78.51561 18414 ft 296 kts 51°
2026-04-23 04:00 -0.09140 -78.49825 18420 ft 298 kts 61°
2026-04-23 04:00 -0.08186 -78.47982 18419 ft 298 kts 64°
2026-04-23 04:00 -0.07290 -78.46107 18327 ft 301 kts 65°
2026-04-23 04:00 -0.06411 -78.44221 18063 ft 298 kts 65°
2026-04-23 04:01 -0.05534 -78.42350 17810 ft 296 kts 63°
2026-04-23 04:01 -0.04367 -78.40677 17558 ft 292 kts 43°
2026-04-23 04:01 -0.02744 -78.39501 17615 ft 289 kts 24°
2026-04-23 04:01 -0.00842 -78.38867 17743 ft 288 kts
2026-04-23 04:02 0.01147 -78.38835 17921 ft 286 kts 348°
2026-04-23 04:02 0.03046 -78.39407 18000 ft 284 kts 330°
2026-04-23 04:02 0.04665 -78.40516 18012 ft 281 kts 313°
2026-04-23 04:02 0.05865 -78.42032 18010 ft 278 kts 296°
2026-04-23 04:03 0.06562 -78.43817 18008 ft 275 kts 280°
2026-04-23 04:03 0.06719 -78.45686 18003 ft 274 kts 264°
2026-04-23 04:03 0.06332 -78.47542 18001 ft 273 kts 249°
2026-04-23 04:03 0.05427 -78.49202 17998 ft 273 kts 232°
2026-04-23 04:04 0.04080 -78.50535 17991 ft 274 kts 216°
2026-04-23 04:04 0.02397 -78.51426 18000 ft 276 kts 200°
2026-04-23 04:04 0.00507 -78.51793 18020 ft 279 kts 183°
2026-04-23 04:04 -0.01434 -78.51631 18012 ft 281 kts 175°
2026-04-23 04:05 -0.03375 -78.51386 18019 ft 281 kts 175°
2026-04-23 04:05 -0.05326 -78.51145 18023 ft 282 kts 175°
2026-04-23 04:05 -0.07271 -78.50903 18025 ft 282 kts 175°
2026-04-23 04:05 -0.09206 -78.50661 18034 ft 278 kts 175°
2026-04-23 04:06 -0.11095 -78.50423 18027 ft 275 kts 175°
2026-04-23 04:06 -0.12994 -78.50185 18031 ft 274 kts 175°
2026-04-23 04:06 -0.14893 -78.49961 17918 ft 276 kts 176°
2026-04-23 04:06 -0.16792 -78.49792 17738 ft 271 kts 178°
2026-04-23 04:07 -0.18672 -78.49652 17677 ft 271 kts 178°
2026-04-23 04:07 -0.20559 -78.49517 17618 ft 271 kts 178°
2026-04-23 04:07 -0.22437 -78.49381 17566 ft 270 kts 178°
2026-04-23 04:07 -0.24252 -78.49244 17555 ft 252 kts 178°
2026-04-23 04:08 -0.25994 -78.49110 16894 ft 253 kts 178°
2026-04-23 04:08 -0.27764 -78.48974 16213 ft 256 kts 177°
2026-04-23 04:08 -0.29538 -78.48837 15594 ft 254 kts 177°
2026-04-23 04:08 -0.31271 -78.48700 15049 ft 251 kts 177°
2026-04-23 04:09 -0.32962 -78.48567 14807 ft 235 kts 177°
2026-04-23 04:09 -0.34542 -78.48442 14576 ft 221 kts 177°
2026-04-23 04:09 -0.36015 -78.48169 14351 ft 210 kts 163°
2026-04-23 04:09 -0.37323 -78.47605 14250 ft 202 kts 153°
2026-04-23 04:10 -0.38520 -78.46887 14234 ft 201 kts 148°
2026-04-23 04:10 -0.39650 -78.46062 14227 ft 201 kts 142°
2026-04-23 04:10 -0.40679 -78.45146 14231 ft 196 kts 137°
2026-04-23 04:10 -0.41579 -78.44181 14250 ft 187 kts 132°
2026-04-23 04:11 -0.42308 -78.43107 14137 ft 189 kts 111°
2026-04-23 04:11 -0.42495 -78.41834 13888 ft 187 kts 83°
2026-04-23 04:11 -0.42083 -78.40618 13661 ft 186 kts 54°
2026-04-23 04:11 -0.41180 -78.39726 13445 ft 183 kts 27°
2026-04-23 04:12 -0.40037 -78.39170 13204 ft 182 kts 23°
2026-04-23 04:12 -0.38893 -78.38648 12918 ft 181 kts 23°
2026-04-23 04:12 -0.37749 -78.38128 12610 ft 179 kts 23°
2026-04-23 04:12 -0.36637 -78.37622 12479 ft 174 kts 23°
2026-04-23 04:13 -0.35548 -78.37124 12297 ft 173 kts 23°
2026-04-23 04:13 -0.34454 -78.36623 12101 ft 173 kts 23°
2026-04-23 04:13 -0.33366 -78.36127 11878 ft 171 kts 24°
2026-04-23 04:13 -0.32284 -78.35635 11655 ft 170 kts 24°
2026-04-23 04:14 -0.31218 -78.35149 11431 ft 168 kts 24°
2026-04-23 04:14 -0.30114 -78.34807 11196 ft 166 kts
2026-04-23 04:14 -0.28963 -78.34777 10972 ft 165 kts 359°
2026-04-23 04:14 -0.27814 -78.34800 10743 ft 165 kts 358°
2026-04-23 04:15 -0.26671 -78.34838 10520 ft 164 kts 358°
2026-04-23 04:15 -0.25532 -78.34883 10306 ft 164 kts 358°
2026-04-23 04:15 -0.23258 -78.34978 9885 ft 163 kts 358°
2026-04-23 04:16 -0.22142 -78.35026 9670 ft 163 kts 357°
2026-04-23 04:16 -0.21014 -78.35074 9452 ft 163 kts 358°
2026-04-23 04:16 -0.19879 -78.35122 9233 ft 163 kts 358°
2026-04-23 04:16 -0.18750 -78.35171 9006 ft 162 kts 358°
2026-04-23 04:17 -0.17628 -78.35219 8737 ft 161 kts 358°
2026-04-23 04:17 -0.16511 -78.35266 8468 ft 159 kts 358°
2026-04-23 04:17 -0.15408 -78.35314 8217 ft 158 kts 358°
2026-04-23 04:17 -0.14327 -78.35360 7989 ft 156 kts 357°
2026-04-23 04:18 -0.13267 -78.35412 7908 ft 141 kts 358°
2026-04-23 04:18 -0.12494 -78.35429 7851 ft 69 kts 358°
2026-04-23 04:18 -0.12149 -78.35449 7836 ft 46 kts 356°
2026-04-23 04:18 -0.11886 -78.35466 7822 ft 23 kts 352°
2026-04-23 04:19 -0.11734 -78.35511 7824 ft 23 kts 334°
2026-04-23 04:19 -0.11648 -78.35561 7822 ft 0 kts 327°
2026-04-23 04:19 -0.11645 -78.35563 7823 ft 3 kts 326°
2026-04-23 04:20 -0.11613 -78.35612 7821 ft 12 kts 271°
2026-04-23 04:20 -0.11663 -78.35644 7822 ft 7 kts 179°
2026-04-23 04:20 -0.11699 -78.35643 7823 ft 3 kts 179°
2026-04-23 04:20 -0.11712 -78.35643 7824 ft 4 kts 178°
2026-04-23 04:21 -0.11805 -78.35639 7826 ft 16 kts 177°
2026-04-23 04:21 -0.11916 -78.35635 7829 ft 16 kts 178°
2026-04-23 04:21 -0.12023 -78.35629 7832 ft 15 kts 180°
2026-04-23 04:21 -0.12121 -78.35626 7836 ft 13 kts 176°
2026-04-23 04:22 -0.12202 -78.35622 7835 ft 10 kts 177°
2026-04-23 04:22 -0.12267 -78.35621 7841 ft 8 kts 179°
2026-04-23 04:22 -0.12320 -78.35620 7842 ft 7 kts 186°
2026-04-23 04:22 -0.12353 -78.35652 7841 ft 8 kts 250°
2026-04-23 04:23 -0.12359 -78.35711 7839 ft 9 kts 266°
2026-04-23 04:23 -0.12362 -78.35775 7836 ft 9 kts 266°
2026-04-23 04:23 -0.12370 -78.35841 7838 ft 10 kts 258°
2026-04-23 04:23 -0.12375 -78.35893 7834 ft 3 kts 267°
2026-04-23 04:24 -0.12377 -78.35915 7837 ft 3 kts 265°
2026-04-23 04:24 -0.12377 -78.35927 7841 ft 0 kts 266°
2026-04-23 04:24 -0.12377 -78.35929 7841 ft 0 kts 267°